| time (UTC) | temp F | wind direction | speed knots | gust knots | rain 1hr in | rain 24hr in | rain mn in | humidity % | barometer mb |
| 20260503010032 | 62 | 239 | 3.5 | 20.0 | 0.00 | 0.00 | 0.00 | 41 | 1010.7 |
| 20260503005517 | 62 | 237 | 7.8 | 20.0 | 0.00 | 0.00 | 0.00 | 40 | 1010.6 |
| 20260503005017 | 62 | 234 | 3.5 | 13.9 | 0.00 | 0.00 | 0.00 | 39 | 1010.6 |
| 20260503004538 | 62 | 283 | 0.9 | 12.2 | 0.00 | 0.00 | 0.00 | 39 | 1010.6 |
| 20260503004023 | 62 | 205 | 2.6 | 12.2 | 0.00 | 0.00 | 0.00 | 39 | 1010.6 |
| 20260503003518 | 63 | 218 | 5.2 | 15.6 | 0.00 | 0.00 | 0.00 | 38 | 1010.7 |
| 20260503003038 | 63 | 284 | 3.5 | 15.6 | 0.00 | 0.00 | 0.00 | 38 | 1010.7 |
| 20260503002518 | 63 | 271 | 7.8 | 15.6 | 0.00 | 0.00 | 0.00 | 37 | 1010.7 |
| 20260503002018 | 63 | 230 | 3.5 | 9.6 | 0.00 | 0.00 | 0.00 | 37 | 1010.7 |
| 20260503001538 | 63 | 251 | 2.6 | 8.7 | 0.00 | 0.00 | 0.00 | 36 | 1010.6 |
| 20260503001016 | 63 | 202 | 1.7 | 8.7 | 0.00 | 0.00 | 0.00 | 36 | 1010.6 |
| 20260503000516 | 63 | 0 | 0.0 | 7.0 | 0.00 | 0.00 | 0.00 | 36 | 1010.6 |
| 20260503000036 | 63 | 0 | 0.9 | 7.8 | 0.00 | 0.00 | 0.00 | 37 | 1010.6 |
| 20260502235515 | 63 | 221 | 0.9 | 9.6 | 0.00 | 0.00 | 0.00 | 37 | 1010.6 |
| 20260502235018 | 63 | 172 | 2.6 | 9.6 | 0.00 | 0.00 | 0.00 | 37 | 1010.8 |
| 20260502234536 | 63 | 322 | 0.9 | 4.3 | 0.00 | 0.00 | 0.00 | 37 | 1010.8 |
| 20260502234015 | 63 | 0 | 0.0 | 3.5 | 0.00 | 0.00 | 0.00 | 36 | 1010.9 |
| 20260502233518 | 63 | 0 | 0.0 | 5.2 | 0.00 | 0.00 | 0.00 | 35 | 1010.8 |
| 20260502233034 | 63 | 207 | 0.9 | 5.2 | 0.00 | 0.00 | 0.00 | 35 | 1010.9 |
| 20260502232518 | 63 | 0 | 0.0 | 4.3 | 0.00 | 0.00 | 0.00 | 35 | 1010.9 |
| 20260502232018 | 63 | 0 | 0.9 | 6.1 | 0.00 | 0.00 | 0.00 | 35 | 1010.9 |
| 20260502231538 | 63 | 126 | 1.7 | 6.1 | 0.00 | 0.00 | 0.00 | 35 | 1010.9 |
| 20260502231021 | 63 | 219 | 1.7 | 6.1 | 0.00 | 0.00 | 0.00 | 35 | 1011.2 |
| 20260502230519 | 63 | 0 | 0.0 | 7.8 | 0.00 | 0.00 | 0.00 | 36 | 1011.1 |
| 20260502230036 | 63 | 231 | 1.7 | 8.7 | 0.00 | 0.00 | 0.00 | 35 | 1011.3 |
| 20260502225518 | 63 | 263 | 2.6 | 9.6 | 0.00 | 0.00 | 0.00 | 35 | 1011.4 |
| 20260502225020 | 63 | 217 | 5.2 | 9.6 | 0.00 | 0.00 | 0.00 | 34 | 1011.4 |
| 20260502224541 | 64 | 218 | 2.6 | 10.4 | 0.00 | 0.00 | 0.00 | 34 | 1011.4 |
| 20260502224018 | 64 | 221 | 4.3 | 10.4 | 0.00 | 0.00 | 0.00 | 34 | 1011.4 |
| 20260502223518 | 64 | 192 | 5.2 | 12.2 | 0.00 | 0.00 | 0.00 | 35 | 1011.4 |
| 20260502223037 | 64 | 257 | 5.2 | 12.2 | 0.00 | 0.00 | 0.00 | 34 | 1011.5 |
| 20260502222518 | 64 | 285 | 4.3 | 11.3 | 0.00 | 0.00 | 0.00 | 35 | 1011.5 |
| 20260502222018 | 65 | 297 | 2.6 | 10.4 | 0.00 | 0.00 | 0.00 | 35 | 1011.5 |
| 20260502221609 | 65 | 236 | 2.6 | 10.4 | 0.00 | 0.00 | 0.00 | 35 | 1011.6 |
| 20260502221018 | 65 | 222 | 5.2 | 8.7 | 0.00 | 0.00 | 0.00 | 33 | 1011.6 |
| 20260502220518 | 64 | 228 | 2.6 | 10.4 | 0.00 | 0.00 | 0.00 | 34 | 1011.7 |
| 20260502220041 | 64 | 232 | 2.6 | 11.3 | 0.00 | 0.00 | 0.00 | 34 | 1011.7 |
| 20260502215519 | 64 | 182 | 5.2 | 11.3 | 0.00 | 0.00 | 0.00 | 33 | 1011.8 |
| 20260502215018 | 64 | 252 | 3.5 | 14.8 | 0.00 | 0.00 | 0.00 | 34 | 1011.9 |
| 20260502214537 | 65 | 202 | 3.5 | 14.8 | 0.00 | 0.00 | 0.00 | 33 | 1011.9 |
| 20260502214018 | 65 | 245 | 6.1 | 13.9 | 0.00 | 0.00 | 0.00 | 34 | 1012.0 |
| 20260502213518 | 66 | 207 | 3.5 | 9.6 | 0.00 | 0.00 | 0.00 | 31 | 1012.0 |
| 20260502213037 | 66 | 243 | 1.7 | 10.4 | 0.00 | 0.00 | 0.00 | 32 | 1012.1 |
| 20260502212519 | 67 | 205 | 5.2 | 11.3 | 0.00 | 0.00 | 0.00 | 32 | 1012.2 |
| 20260502212020 | 67 | 246 | 3.5 | 11.3 | 0.00 | 0.00 | 0.00 | 33 | 1012.2 |
| 20260502211545 | 67 | 279 | 3.5 | 11.3 | 0.00 | 0.00 | 0.00 | 33 | 1012.4 |
| 20260502211019 | 66 | 227 | 3.5 | 11.3 | 0.00 | 0.00 | 0.00 | 32 | 1012.5 |
| 20260502210518 | 67 | 230 | 2.6 | 10.4 | 0.00 | 0.00 | 0.00 | 33 | 1012.6 |
| 20260502210036 | 67 | 259 | 3.5 | 11.3 | 0.00 | 0.00 | 0.00 | 33 | 1012.7 |
| 20260502205517 | 66 | 236 | 6.1 | 12.2 | 0.00 | 0.00 | 0.00 | 34 | 1012.8 |
| 20260502205017 | 66 | 299 | 5.2 | 13.0 | 0.00 | 0.00 | 0.00 | 35 | 1012.9 |
| 20260502204536 | 66 | 290 | 3.5 | 13.0 | 0.00 | 0.00 | 0.00 | 38 | 1013.0 |
| 20260502204017 | 65 | 234 | 7.0 | 13.0 | 0.00 | 0.00 | 0.00 | 34 | 1013.1 |
| 20260502203516 | 65 | 307 | 3.5 | 11.3 | 0.00 | 0.00 | 0.00 | 33 | 1013.1 |
| 20260502203034 | 65 | 261 | 4.3 | 12.2 | 0.00 | 0.00 | 0.00 | 32 | 1013.3 |
| 20260502202517 | 65 | 290 | 2.6 | 12.2 | 0.00 | 0.00 | 0.00 | 36 | 1013.4 |
| 20260502202018 | 63 | 188 | 4.3 | 14.8 | 0.00 | 0.00 | 0.00 | 34 | 1013.5 |
| 20260502201536 | 64 | 223 | 4.3 | 14.8 | 0.00 | 0.00 | 0.00 | 33 | 1013.8 |
| 20260502201017 | 64 | 211 | 5.2 | 11.3 | 0.00 | 0.00 | 0.00 | 33 | 1013.7 |
| 20260502200520 | 63 | 258 | 4.3 | 12.2 | 0.00 | 0.00 | 0.00 | 36 | 1013.8 |
| 20260502200038 | 62 | 246 | 3.5 | 12.2 | 0.00 | 0.00 | 0.00 | 36 | 1014.1 |
| 20260502195518 | 62 | 219 | 4.3 | 12.2 | 0.00 | 0.00 | 0.00 | 36 | 1014.1 |
| 20260502195016 | 62 | 317 | 1.7 | 9.6 | 0.00 | 0.00 | 0.00 | 36 | 1014.2 |
| 20260502194538 | 62 | 194 | 5.2 | 9.6 | 0.00 | 0.00 | 0.00 | 34 | 1014.3 |
| 20260502194018 | 63 | 0 | 3.5 | 11.3 | 0.00 | 0.00 | 0.00 | 36 | 1014.4 |
| 20260502193518 | 61 | 232 | 2.6 | 11.3 | 0.00 | 0.00 | 0.00 | 35 | 1014.5 |
| 20260502193037 | 62 | 217 | 1.7 | 13.0 | 0.00 | 0.00 | 0.00 | 33 | 1014.6 |
| 20260502192520 | 62 | 275 | 6.1 | 13.0 | 0.00 | 0.00 | 0.00 | 35 | 1014.7 |
| 20260502192018 | 63 | 234 | 5.2 | 10.4 | 0.00 | 0.00 | 0.00 | 35 | 1014.7 |
| 20260502191536 | 63 | 206 | 4.3 | 11.3 | 0.00 | 0.00 | 0.00 | 33 | 1014.7 |
| 20260502191024 | 62 | 257 | 4.3 | 11.3 | 0.00 | 0.00 | 0.00 | 35 | 1014.8 |
| 20260502190517 | 63 | 251 | 2.6 | 9.6 | 0.00 | 0.00 | 0.00 | 36 | 1014.9 |
| 20260502190035 | 64 | 240 | 2.6 | 10.4 | 0.00 | 0.00 | 0.00 | 39 | 1015.0 |
| 20260502185519 | 61 | 267 | 4.3 | 10.4 | 0.00 | 0.00 | 0.00 | 39 | 1015.1 |
| 20260502185015 | 63 | 254 | 3.5 | 10.4 | 0.00 | 0.00 | 0.00 | 36 | 1015.3 |
| 20260502184544 | 62 | 344 | 3.5 | 7.8 | 0.00 | 0.00 | 0.00 | 35 | 1015.3 |
| 20260502184021 | 62 | 241 | 1.7 | 9.6 | 0.00 | 0.00 | 0.00 | 35 | 1015.4 |
| 20260502183519 | 61 | 199 | 1.7 | 9.6 | 0.00 | 0.00 | 0.00 | 36 | 1015.5 |
| 20260502183038 | 60 | 144 | 1.7 | 8.7 | 0.00 | 0.00 | 0.00 | 38 | 1015.6 |
| 20260502182517 | 61 | 288 | 2.6 | 12.2 | 0.00 | 0.00 | 0.00 | 38 | 1015.6 |
| 20260502182017 | 60 | 216 | 3.5 | 12.2 | 0.00 | 0.00 | 0.00 | 37 | 1015.7 |
| 20260502181536 | 60 | 211 | 1.7 | 9.6 | 0.00 | 0.00 | 0.00 | 36 | 1015.7 |
| 20260502181019 | 59 | 218 | 1.7 | 11.3 | 0.00 | 0.00 | 0.00 | 39 | 1015.8 |
| 20260502180517 | 59 | 0 | 4.3 | 11.3 | 0.00 | 0.00 | 0.00 | 36 | 1015.9 |
| 20260502170517 | 58 | 250 | 2.6 | 13.0 | 0.00 | 0.00 | 0.00 | 38 | 1016.8 |
| 20260502164021 | 58 | 251 | 5.2 | 16.5 | 0.00 | 0.00 | 0.00 | 39 | 1017.2 |
| 20260502163516 | 59 | 296 | 2.6 | 14.8 | 0.00 | 0.00 | 0.00 | 44 | 1017.2 |
| 20260502163042 | 58 | 0 | 5.2 | 14.8 | 0.00 | 0.00 | 0.00 | 41 | 1017.3 |
| 20260502162516 | 57 | 226 | 1.7 | 12.2 | 0.00 | 0.00 | 0.00 | 40 | 1017.3 |
| 20260502162017 | 58 | 285 | 5.2 | 13.0 | 0.00 | 0.00 | 0.00 | 41 | 1017.4 |
| 20260502161539 | 57 | 292 | 6.1 | 13.0 | 0.00 | 0.00 | 0.00 | 39 | 1017.4 |
| 20260502161020 | 57 | 299 | 7.0 | 11.3 | 0.00 | 0.00 | 0.00 | 38 | 1017.5 |
| 20260502160521 | 56 | 249 | 3.5 | 8.7 | 0.00 | 0.00 | 0.00 | 42 | 1017.5 |
| 20260502152020 | 54 | 222 | 2.6 | 9.6 | 0.00 | 0.00 | 0.00 | 45 | 1017.8 |
| 20260502151537 | 54 | 217 | 3.5 | 11.3 | 0.00 | 0.00 | 0.00 | 44 | 1017.8 |
| 20260502151018 | 54 | 309 | 1.7 | 11.3 | 0.00 | 0.00 | 0.00 | 46 | 1017.8 |
| 20260502150518 | 53 | 309 | 3.5 | 11.3 | 0.00 | 0.00 | 0.00 | 48 | 1017.9 |
| 20260502130515 | 40 | 0 | 1.7 | 7.0 | 0.00 | 0.00 | 0.00 | 74 | 1018.2 |
| 20260502123516 | 36 | 264 | 0.9 | 3.5 | 0.00 | 0.00 | 0.00 | 77 | 1018.2 |
| 20260502123036 | 36 | 240 | 0.9 | 3.5 | 0.00 | 0.00 | 0.00 | 77 | 1018.1 |
| 20260502122519 | 35 | 0 | 0.0 | 2.6 | 0.00 | 0.00 | 0.00 | 77 | 1018.2 |
| 20260502122020 | 34 | 0 | 0.0 | 1.7 | 0.00 | 0.00 | 0.00 | 77 | 1018.2 |
| 20260502121536 | 34 | 267 | 0.0 | 0.9 | 0.00 | 0.00 | 0.00 | 77 | 1018.3 |
| 20260502121018 | 34 | 0 | 0.0 | 0.9 | 0.00 | 0.00 | 0.00 | 76 | 1018.4 |
| 20260502120518 | 34 | 0 | 0.0 | 0.9 | 0.00 | 0.00 | 0.00 | 76 | 1018.4 |
| 20260502115520 | 34 | 0 | 0.0 | 1.7 | 0.00 | 0.00 | 0.00 | 76 | 1018.4 |
| 20260502115019 | 33 | 0 | 0.0 | 2.6 | 0.00 | 0.00 | 0.00 | 76 | 1018.3 |
| 20260502114539 | 33 | 0 | 0.0 | 2.6 | 0.00 | 0.00 | 0.00 | 75 | 1018.2 |
| 20260502114017 | 33 | 0 | 0.0 | 2.6 | 0.00 | 0.00 | 0.00 | 75 | 1018.1 |
| 20260502113519 | 33 | 261 | 0.0 | 2.6 | 0.00 | 0.00 | 0.00 | 75 | 1018.0 |
| 20260502113037 | 33 | 0 | 0.0 | 2.6 | 0.00 | 0.00 | 0.00 | 75 | 1018.1 |
| 20260502112518 | 33 | 258 | 0.0 | 1.7 | 0.00 | 0.00 | 0.00 | 75 | 1018.0 |
| 20260502112016 | 33 | 0 | 0.0 | 1.7 | 0.00 | 0.00 | 0.00 | 75 | 1017.9 |
| 20260502111538 | 33 | 0 | 0.0 | 2.6 | 0.00 | 0.00 | 0.00 | 75 | 1017.9 |
| 20260502111018 | 33 | 0 | 0.0 | 2.6 | 0.00 | 0.00 | 0.00 | 75 | 1017.9 |
| 20260502110518 | 33 | 0 | 0.0 | 2.6 | 0.00 | 0.00 | 0.00 | 74 | 1018.0 |
| 20260502110037 | 33 | 0 | 0.0 | 3.5 | 0.00 | 0.00 | 0.00 | 74 | 1018.0 |
| 20260502105521 | 33 | 0 | 0.0 | 3.5 | 0.00 | 0.00 | 0.00 | 74 | 1018.0 |
| 20260502105017 | 33 | 269 | 0.0 | 3.5 | 0.00 | 0.00 | 0.00 | 74 | 1018.0 |
| 20260502104543 | 33 | 0 | 0.0 | 2.6 | 0.00 | 0.00 | 0.00 | 74 | 1017.9 |
| 20260502104017 | 33 | 0 | 0.0 | 2.6 | 0.00 | 0.00 | 0.00 | 74 | 1017.9 |
| 20260502103516 | 33 | 0 | 0.0 | 2.6 | 0.00 | 0.00 | 0.00 | 74 | 1017.9 |
| 20260502103041 | 33 | 0 | 0.0 | 2.6 | 0.00 | 0.00 | 0.00 | 73 | 1017.9 |
| 20260502102518 | 33 | 0 | 0.0 | 0.9 | 0.00 | 0.00 | 0.00 | 74 | 1018.0 |
| 20260502102018 | 33 | 0 | 0.0 | 0.9 | 0.00 | 0.00 | 0.00 | 74 | 1018.0 |
| 20260502101548 | 33 | 0 | 0.0 | 0.9 | 0.00 | 0.00 | 0.00 | 74 | 1017.9 |
| 20260502101018 | 33 | 0 | 0.0 | 0.9 | 0.00 | 0.00 | 0.00 | 74 | 1017.9 |
| 20260502100518 | 33 | 0 | 0.0 | 0.9 | 0.00 | 0.00 | 0.00 | 74 | 1017.9 |
| 20260502091018 | 33 | 0 | 0.0 | 0.9 | 0.00 | 0.00 | 0.00 | 74 | 1017.9 |
| 20260502090518 | 33 | 0 | 0.0 | 2.6 | 0.00 | 0.00 | 0.00 | 74 | 1017.8 |
| 20260502071534 | 34 | 0 | 0.0 | 0.0 | 0.00 | 0.00 | 0.00 | 69 | 1018.2 |
| 20260502071019 | 34 | 0 | 0.0 | 0.0 | 0.00 | 0.00 | 0.00 | 69 | 1018.1 |
| 20260502070519 | 34 | 0 | 0.0 | 0.0 | 0.00 | 0.00 | 0.00 | 69 | 1018.2 |
| 20260502070037 | 34 | 0 | 0.0 | 0.0 | 0.00 | 0.00 | 0.00 | 69 | 1018.2 |
| 20260502065519 | 34 | 0 | 0.0 | 0.0 | 0.00 | 0.00 | 0.00 | 69 | 1018.3 |
| 20260502065019 | 34 | 0 | 0.0 | 0.0 | 0.00 | 0.00 | 0.00 | 68 | 1018.3 |
| 20260502064543 | 35 | 0 | 0.0 | 0.0 | 0.00 | 0.00 | 0.00 | 68 | 1018.3 |
| 20260502064031 | 35 | 0 | 0.0 | 0.0 | 0.00 | 0.00 | 0.00 | 68 | 1018.4 |
| 20260502063518 | 35 | 0 | 0.0 | 0.0 | 0.00 | 0.00 | 0.00 | 68 | 1018.4 |
| 20260502063039 | 35 | 0 | 0.0 | 0.0 | 0.00 | 0.00 | 0.00 | 67 | 1018.4 |
| 20260502062516 | 35 | 0 | 0.0 | 0.0 | 0.00 | 0.00 | 0.00 | 67 | 1018.4 |
| 20260502062016 | 35 | 0 | 0.0 | 0.0 | 0.00 | 0.00 | 0.00 | 67 | 1018.4 |
| 20260502061535 | 35 | 0 | 0.0 | 0.0 | 0.00 | 0.00 | 0.00 | 67 | 1018.4 |
| 20260502061018 | 35 | 0 | 0.0 | 0.0 | 0.00 | 0.00 | 0.00 | 67 | 1018.3 |
| 20260502060517 | 35 | 0 | 0.0 | 0.0 | 0.00 | 0.00 | 0.00 | 67 | 1018.4 |
| 20260502060038 | 35 | 0 | 0.0 | 0.0 | 0.00 | 0.00 | 0.00 | 67 | 1018.4 |
| 20260502055518 | 36 | 0 | 0.0 | 0.0 | 0.00 | 0.00 | 0.00 | 66 | 1018.4 |
| 20260502055016 | 36 | 0 | 0.0 | 0.0 | 0.00 | 0.00 | 0.00 | 66 | 1018.4 |
| 20260502054540 | 36 | 0 | 0.0 | 0.0 | 0.00 | 0.00 | 0.00 | 66 | 1018.4 |
| 20260502054016 | 36 | 0 | 0.0 | 0.0 | 0.00 | 0.00 | 0.00 | 66 | 1018.4 |
| 20260502053515 | 36 | 0 | 0.0 | 0.0 | 0.00 | 0.00 | 0.00 | 65 | 1018.4 |
| 20260502053048 | 36 | 0 | 0.0 | 0.0 | 0.00 | 0.00 | 0.00 | 65 | 1018.4 |
| 20260502052520 | 36 | 0 | 0.0 | 0.0 | 0.00 | 0.00 | 0.00 | 64 | 1018.4 |
| 20260502052019 | 36 | 0 | 0.0 | 0.0 | 0.00 | 0.00 | 0.00 | 64 | 1018.4 |
| 20260502051546 | 36 | 0 | 0.0 | 0.0 | 0.00 | 0.00 | 0.00 | 64 | 1018.4 |
| 20260502051018 | 37 | 0 | 0.0 | 0.0 | 0.00 | 0.00 | 0.00 | 63 | 1018.4 |
| 20260502050518 | 37 | 0 | 0.0 | 0.0 | 0.00 | 0.00 | 0.00 | 63 | 1018.4 |
| 20260502050037 | 37 | 0 | 0.0 | 0.9 | 0.00 | 0.00 | 0.00 | 63 | 1018.3 |
| 20260502045518 | 37 | 0 | 0.0 | 0.9 | 0.00 | 0.00 | 0.00 | 62 | 1018.3 |
| 20260502045018 | 37 | 0 | 0.0 | 0.0 | 0.00 | 0.00 | 0.00 | 62 | 1018.3 |
| 20260502044535 | 37 | 0 | 0.0 | 0.0 | 0.00 | 0.00 | 0.00 | 62 | 1018.3 |
| 20260502044018 | 37 | 0 | 0.0 | 0.0 | 0.00 | 0.00 | 0.00 | 62 | 1018.2 |
| 20260502043518 | 38 | 0 | 0.0 | 0.0 | 0.00 | 0.00 | 0.00 | 61 | 1018.3 |
| 20260502043034 | 38 | 0 | 0.0 | 0.0 | 0.00 | 0.00 | 0.00 | 61 | 1018.3 |
| 20260502042518 | 38 | 0 | 0.0 | 0.0 | 0.00 | 0.00 | 0.00 | 61 | 1018.3 |
| 20260502042017 | 38 | 0 | 0.0 | 0.0 | 0.00 | 0.00 | 0.00 | 61 | 1018.3 |
| 20260502041540 | 38 | 0 | 0.0 | 0.0 | 0.00 | 0.00 | 0.00 | 61 | 1018.3 |
| 20260502041018 | 39 | 0 | 0.0 | 0.0 | 0.00 | 0.00 | 0.00 | 60 | 1018.3 |
| 20260502040519 | 39 | 0 | 0.0 | 0.0 | 0.00 | 0.00 | 0.00 | 60 | 1018.3 |
| 20260502040032 | 39 | 0 | 0.0 | 0.0 | 0.00 | 0.00 | 0.00 | 60 | 1018.4 |
| 20260502035517 | 39 | 0 | 0.0 | 0.0 | 0.00 | 0.00 | 0.00 | 59 | 1018.4 |
| 20260502035018 | 40 | 0 | 0.0 | 0.0 | 0.00 | 0.00 | 0.00 | 59 | 1018.4 |
| 20260502034537 | 40 | 0 | 0.0 | 0.0 | 0.00 | 0.00 | 0.00 | 59 | 1018.5 |
| 20260502034023 | 40 | 0 | 0.0 | 0.0 | 0.00 | 0.00 | 0.00 | 58 | 1018.5 |
| 20260502033537 | 40 | 0 | 0.0 | 0.0 | 0.00 | 0.00 | 0.00 | 58 | 1018.5 |
| 20260502033039 | 41 | 0 | 0.0 | 0.0 | 0.00 | 0.00 | 0.00 | 58 | 1018.5 |
| 20260502032521 | 41 | 0 | 0.0 | 0.0 | 0.00 | 0.00 | 0.00 | 57 | 1018.5 |
| 20260502032018 | 41 | 0 | 0.0 | 0.0 | 0.00 | 0.00 | 0.00 | 56 | 1018.5 |
| 20260502031541 | 41 | 0 | 0.0 | 0.0 | 0.00 | 0.00 | 0.00 | 55 | 1018.5 |
| 20260502031018 | 42 | 0 | 0.0 | 0.0 | 0.00 | 0.00 | 0.00 | 54 | 1018.5 |
| 20260502030521 | 42 | 0 | 0.0 | 0.0 | 0.00 | 0.00 | 0.00 | 53 | 1018.5 |
| 20260502030037 | 42 | 0 | 0.0 | 0.0 | 0.00 | 0.00 | 0.00 | 51 | 1018.5 |
| 20260502025518 | 42 | 0 | 0.0 | 0.0 | 0.00 | 0.00 | 0.00 | 51 | 1018.5 |
| 20260502025018 | 43 | 0 | 0.0 | 0.0 | 0.00 | 0.00 | 0.00 | 49 | 1018.4 |
| 20260502024537 | 43 | 0 | 0.0 | 0.0 | 0.00 | 0.00 | 0.00 | 48 | 1018.5 |
| 20260502024021 | 43 | 0 | 0.0 | 0.0 | 0.00 | 0.00 | 0.00 | 47 | 1018.4 |
| 20260502023518 | 43 | 0 | 0.0 | 0.0 | 0.00 | 0.00 | 0.00 | 46 | 1018.4 |
| 20260502023036 | 44 | 0 | 0.0 | 0.0 | 0.00 | 0.00 | 0.00 | 46 | 1018.5 |
| 20260502022521 | 44 | 0 | 0.0 | 0.0 | 0.00 | 0.00 | 0.00 | 45 | 1018.5 |
| 20260502022019 | 44 | 0 | 0.0 | 0.0 | 0.00 | 0.00 | 0.00 | 45 | 1018.4 |
| 20260502021536 | 45 | 0 | 0.0 | 0.0 | 0.00 | 0.00 | 0.00 | 45 | 1018.4 |
| 20260502021018 | 45 | 0 | 0.0 | 0.0 | 0.00 | 0.00 | 0.00 | 44 | 1018.4 |
| 20260502020518 | 45 | 0 | 0.0 | 0.0 | 0.00 | 0.00 | 0.00 | 44 | 1018.4 |
| 20260502020032 | 46 | 0 | 0.0 | 0.0 | 0.00 | 0.00 | 0.00 | 43 | 1018.3 |
| 20260502015515 | 46 | 0 | 0.0 | 0.0 | 0.00 | 0.00 | 0.00 | 42 | 1018.2 |
| 20260502015020 | 47 | 0 | 0.0 | 0.0 | 0.00 | 0.00 | 0.00 | 41 | 1018.2 |
| 20260502014538 | 47 | 0 | 0.0 | 0.0 | 0.00 | 0.00 | 0.00 | 40 | 1018.1 |
| 20260502014017 | 48 | 0 | 0.0 | 0.0 | 0.00 | 0.00 | 0.00 | 40 | 1018.1 |
| 20260502013518 | 48 | 0 | 0.0 | 0.0 | 0.00 | 0.00 | 0.00 | 40 | 1018.0 |
| 20260502013044 | 49 | 0 | 0.0 | 0.0 | 0.00 | 0.00 | 0.00 | 39 | 1018.0 |
| 20260502012516 | 49 | 0 | 0.0 | 0.0 | 0.00 | 0.00 | 0.00 | 39 | 1017.9 |
| 20260502012016 | 49 | 0 | 0.0 | 0.0 | 0.00 | 0.00 | 0.00 | 39 | 1017.9 |
| 20260502011556 | 50 | 0 | 0.0 | 0.0 | 0.00 | 0.00 | 0.00 | 39 | 1017.8 |
| 20260502011018 | 50 | 0 | 0.0 | 1.7 | 0.00 | 0.00 | 0.00 | 39 | 1017.8 |
| 20260502010519 | 50 | 0 | 0.0 | 1.7 | 0.00 | 0.00 | 0.00 | 39 | 1017.8 |